Skip Page Navigation
NASA JPL Caltech
NASA Logo - Jet Propulsion Laboratory + View the NASA Portal
+ Near-Earth Object (NEO) Program
Search JPL
JPL Home Earth Solar System Stars & Galaxies Technology
JPL Solar System Dynamics
BODIES ORBITS EPHEMERIDES TOOLS PHYSICAL DATA DISCOVERY FAQ SITE MAP
JPL Small-Body Database Browser
Search: [ help ]  
7977 (1977 QQ5)
Classification: Amor [NEO]          SPK-ID: 2007977
Ephemeris | Orbit Diagram | Orbital Elements | Physical Parameters | Discovery Circumstances | Close-Approach Data ]

[ show orbit diagram ]
Orbital Elements at Epoch 2457000.5 (2014-Dec-09.0) TDB
Reference: JPL 100 (heliocentric ecliptic J2000)
 Element Value Uncertainty (1-sigma)   Units 
e .4653954831021281 6.5031e-08  
a 2.227156534578066 1.0976e-08 AU
q 1.190647943224046 1.4489e-07 AU
i 25.16923425502474 9.7895e-06 deg
node 134.2281402832665 1.7194e-05 deg
peri 248.1097116248163 2.0356e-05 deg
M 64.87804514117049 1.7588e-05 deg
tp 2456781.713865598497
(2014-May-04.21386560)
5.8e-05 JED
period 1214.016362748876
3.32
8.9746e-06
2.457e-08
d
yr
n .2965363656094868 2.1921e-09 deg/d
Q 3.263665125932087 1.6084e-08 AU
  Orbit Determination Parameters
   # obs. used (total)      534  
   data-arc span      21890 days (59.93 yr)  
   first obs. used      1955-03-23  
   last obs. used      2015-02-26  
   planetary ephem.      DE431  
   SB-pert. ephem.      SB431-BIG16  
   condition code      0  
   fit RMS      .59055  
   data source      ORB  
   producer      Otto Matic  
   solution date      2015-Feb-27 05:17:39  

Additional Information
 Earth MOID = .359268 AU 
 T_jup = 3.384 
[ show covariance matrix ]

Ephemeris | Orbit Diagram | Orbital Elements | Physical Parameters | Discovery Circumstances | Close-Approach Data ]

Physical Parameter Table
Parameter Symbol Value Units Sigma Reference Notes
absolute magnitude H 15.1 mag n/a MPO319185  
rotation period rot_per 7.457 h n/a LCDB (Rev. 2015-Feb); Warner et al., 2009 Incomplete or inconclusive result.
Published Reference List:
[Pravec, P.; Wolf, M.; Sarounova, L. (1998) http://www.asu.cas.cz/~ppravec/neo.htm]
SMASSII spectral type spec_B S   n/a EAR-A-5-DDR-TAXONOMY-V4.0 based on a high-resolution spectrum by Xu et al. (1995) or Bus and Binzel (2002)

7977 (1977 QQ5)          Discovered 1977-Aug-21 by McNaught, R. H. at Siding Spring (413)
Reference: DISCOVERY.DBLast Updated: 2003-08-29

[ show close-approach data ]
Ephemeris | Orbit Diagram | Orbital Elements | Physical Parameters | Discovery Circumstances | Close-Approach Data ]
ABOUT SSD CREDITS/AWARDS PRIVACY/COPYRIGHT GLOSSARY LINKS
FirstGov 2015-Mar-06 06:01 UT
(server date/time)  
NASA Home Page
Site Manager:   Ryan S. Park
Webmaster  Alan B. Chamberlin